Weather History for Liberia, Costa Rica

Change the Weather History Date:

Wednesday, November 12, 2014

  Actual Average Record
Temperature  
Mean Temperature 80 °F -  
Max Temperature 90 °F 86 °F 91 °F (2001)
Min Temperature 71 °F 72 °F 60 °F (2007)
Cooling Degree Days 16    
Growing Degree Days 30 (Base 50)    
Moisture  
Dew Point 72 °F    
Average Humidity 71    
Maximum Humidity 89    
Minimum Humidity 48    
Precipitation  
Precipitation 0.00 in - - ()
Sea Level Pressure  
Sea Level Pressure 29.87 in    
Wind  
Wind Speed 3 mph ()    
Max Wind Speed 9 mph    
Max Gust Speed -    
Visibility 7.7 miles    
Events Fog    
Averages and records for this station are not official NWS values.
T = Trace of Precipitation, MM = Missing Value Source: Averaged Metar Reports

Daily Weather History Graph

Daily Weather History Graph

Search for Another Location

Airport:

Trip Planner

Search our weather history database for the weather conditions in past years. The results will help you decide how hot, cold, wet, or windy it might be!

Date:

Astronomy

Nov. 12, 2014 Rise Set
Actual Time 5:36 AM CST 5:16 PM CST
Civil Twilight 5:14 AM CST 5:38 PM CST
Nautical Twilight 4:48 AM CST 6:03 PM CST
Astronomical Twilight 4:23 AM CST 6:29 PM CST
Moon 10:27 PM CST (11/12) 10:26 AM CST (11/12)
Length of Visible Light 12h 23m
Length of Day
11h 39m
Waning Gibbous, 68% of the Moon is Illuminated
Nov 12
Waning Gibbous
Nov 14
Last Quarter
Nov 22
New
Nov 29
First Quarter
Dec 6
Full

Hourly Weather History & Observations

Time (CST) Temp. Heat Index Dew Point Humidity Pressure Visibility Wind Dir Wind Speed Gust Speed Precip Events Conditions
6:00 AM 73 °F - 70 °F 89% 29.93 in 12 mi SE 2.3 mph - - Fog Light Fog
6:00 AM 73.4 °F - 69.8 °F 88% 29.90 in 6.2 mi SE 2.3 mph - N/A Fog Mostly Cloudy
7:00 AM 77.0 °F - 71.6 °F 83% 29.91 in 6.2 mi Calm Calm - N/A Fog Mostly Cloudy
8:00 AM 78.8 °F - 73.4 °F 83% 29.92 in 6.2 mi SW 2.3 mph - N/A   Scattered Clouds
9:00 AM 82 °F - 72 °F 66% 29.95 in 12 mi South 3.5 mph - -   Scattered Clouds
9:00 AM 82.4 °F 88.2 °F 73.4 °F 74% 29.93 in 6.2 mi South 3.5 mph - N/A   Partly Cloudy
10:00 AM 86.0 °F 91.8 °F 71.6 °F 62% 29.92 in 6.2 mi NW 3.5 mph - N/A   Partly Cloudy
11:00 AM 86.0 °F 91.8 °F 71.6 °F 62% 29.89 in 6.2 mi WNW 3.5 mph - N/A   Scattered Clouds
12:00 PM 88 °F - 71 °F 48% 29.87 in 12 mi NW 4.6 mph - -   Partly Cloudy
12:00 PM 87.8 °F 93.8 °F 71.6 °F 58% 29.85 in 6.2 mi NW 4.6 mph - N/A   Scattered Clouds
1:00 PM 89.6 °F 98.2 °F 73.4 °F 59% 29.83 in 6.2 mi WNW 5.8 mph - N/A   Scattered Clouds
2:00 PM 87.8 °F 95.6 °F 73.4 °F 62% 29.81 in 6.2 mi West 9.2 mph - N/A   Scattered Clouds
3:00 PM 87 °F - 73 °F 55% 29.83 in 12 mi WNW 9.2 mph - -   Scattered Clouds
3:00 PM 86.0 °F 93.4 °F 73.4 °F 66% 29.80 in 6.2 mi WNW 9.2 mph - N/A   Scattered Clouds
4:00 PM 84.2 °F 90.9 °F 73.4 °F 70% 29.80 in 6.2 mi WNW 8.1 mph - N/A   Scattered Clouds
5:00 PM 82.4 °F 88.2 °F 73.4 °F 74% 29.81 in 6.2 mi WNW 5.8 mph - N/A   Scattered Clouds
6:00 PM 80 °F - 74 °F 76% 29.86 in 12 mi South 3.5 mph - -   Scattered Clouds
6:00 PM 80.6 °F 85.4 °F 73.4 °F 79% 29.83 in 6.2 mi South 3.5 mph - N/A   Scattered Clouds
7:00 PM 78.8 °F - 73.4 °F 83% 29.85 in 6.2 mi SSW 4.6 mph - N/A   Scattered Clouds
8:00 PM 78.8 °F - 71.6 °F 78% 29.87 in 6.2 mi SE 5.8 mph - N/A   Scattered Clouds